COSMOS 1408 DEB, 50032

Orbit data source: Space-Track

COSMOS 1408 DEB, 50032 is space debris in LEO originally from a launch on Thu, 16 Sep 1982 UTC launched from the Plesetsk Missile And Space Complex (PKMTR). Cosmos 1408 debris is a result of deliberate destruction of the defunct Soviet-era reconnaissance satellite Cosmos 1408 by a Russian anti-satellite missile in 2021. This event added many debris pieces to Earth's orbit, complicating space navigation and increasing collision risks for operational satellites and the International Space Station. The Cosmos 1408 debris has heightened concerns about space safety and militarization, emphasizing the urgent need for comprehensive space debris management strategies.

Loading next visibility...
Identifier
50032, 1982-092RU
Orbit
LEO
Country
Flag of CISCIS
Related business
Manufacturer
Yuzhnoe
Mission
Spacecraft
Bus & Motor
Unknown
Mass
Unknown
Launch date (UTC)
1982-09-16 (44 years ago)
Launch vehicle
Unknown
Launch site
Plesetsk Missile And Space Complex (PKMTR)
Object type
Payload
Rocket body
Debris
Shape & HBR
Unknown shape, 0.1 m
Radar Cross Section
Medium (>0.1 m² and <1 m²)

Expand to show TLE details & history
Last TLE update: 2 days ago

TLE from 2 days ago
0 COSMOS 1408 DEB
1 50032U 82092RU  26171.39510406  .00003437  00000-0  65372-4 0  9990
2 50032  82.5619 223.7866 0013744 239.6831 120.3060 15.47721500255352
Epoch: 2026-06-20T09:28Z
TLE epoch observation values (Epoch: 2026-06-20T09:28:56.990Z)
Latitude
-0.00005°
Longitude
172.93879°
Altitude
431.248 km
Speed
7.65 km/s
True Right ascension
14h 55m 08s
True Declination
0° 00' 00"
Sunlit
Object was in full shadow at epoch
Visualization orbit readout
Latitude
Unknown
Longitude
Unknown
Altitude
Unknown
Speed
Unknown
Apparent Right ascension
Unknown
Apparent Declination
Unknown
Sunlit
N/A
Visualization observer readout
Local Sidereal Time
21:41:01
Azimuth
Unknown
Elevation
Unknown
Doppler factor
Unknown
Orbital elements
Apogee altitude
429.667 km
Perigee altitude
410.98 km
Semi-major axis
6,798.461 km
Eccentricity
0.00137
Inclination
82.5619°
RAAN
223.7866°
Arg. of periapsis
239.6831°
True anomaly
120.44185°
Mean anomaly
120.306°
Eccentric anomaly
120.37394°
Mean motion
3.87193 °/min
Orbital period
92.98 mins
BSTAR
0.000065372

Documentation

Showing up to 5 results
|